Location: Les Thiberg�res
(47.8554°N, 1.0978°W)
Time: 14:30:10
(UTC+00:00)

ADEOS - Pass Details

Date: 17 February 2020
Orbit: 793 x 794 km, 98.9° (Epoch: 27 March)

Event Time Altitude Azimuth Distance (km) Brightness Sun altitude
Rises 04:18:05 0° 14° (NNE) 3,308 7.1 -29.0°
Reaches altitude 10° 04:20:25 10° 14° (NNE) 2,374 6.3 -28.7°
Enters shadow 04:25:01 69° 6° (N) 850 3.6 -27.9°
